Paris/de Gaulle Arpt, France

11:47 AM CET on February 22, 2017 (GMT +0100)
Charles de Gaulle

Weather History for LFPG - November, 2013

Change the Weather History Date:

Sunday, November 3, 2013

  Actual Average Record
Temperature  
Mean Temperature 50 °F -  
Max Temperature 53 °F 47 °F 66 °F (2005)
Min Temperature 46 °F 38 °F 30 °F (1997)
Degree Days  
Heating Degree Days 16    
Moisture  
Dew Point 42 °F    
Average Humidity 72    
Maximum Humidity 87    
Minimum Humidity 54    
Precipitation  
Precipitation 0.00 in - - ()
Sea Level Pressure  
Sea Level Pressure 29.73 in    
Wind  
Wind Speed 15 mph ()    
Max Wind Speed 23 mph    
Max Gust Speed 29 mph    
Visibility 6.2 miles    
Events Rain    
Averages and records for this station are not official NWS values.
T = Trace of Precipitation, MM = Missing Value Source: Averaged Metar Reports

Daily Weather History Graph

Daily Weather History Graph

Search for Another Location

Airport or City:

Trip Planner

Search our weather history database for the weather conditions in past years. The results will help you decide how hot, cold, wet, or windy it might be!

Date:

Astronomy

Nov. 03, 2013 Rise Set
Actual Time 7:40 AM CET 5:25 PM CET
Civil Twilight 7:06 AM CET 5:59 PM CET
Nautical Twilight 6:29 AM CET 6:36 PM CET
Astronomical Twilight 5:52 AM CET 7:13 PM CET
Moon 7:27 AM CET (11/3) 5:27 PM CET (11/3)
Length of Visible Light 10h 52m
Length of Day
9h 45m
Waning Crescent, 0% of the Moon is Illuminated
Nov 3
Waning Crescent
Nov 3
New
Nov 10
First Quarter
Nov 17
Full
Nov 25
Last Quarter

Hourly Weather History & Observations

Time (CET) Temp. Windchill Dew Point Humidity Pressure Visibility Wind Dir Wind Speed Gust Speed Precip Events Conditions
12:00 AM 50.0 °F - 46.4 °F 87% 29.68 in 6.2 mi SW 13.8 mph - N/A   Mostly Cloudy
12:30 AM 50.0 °F - 46.4 °F 87% 29.68 in 6.2 mi WSW 13.8 mph - N/A   Scattered Clouds
1:00 AM 50.0 °F - 46.4 °F 87% 29.68 in 6.2 mi WSW 15.0 mph - N/A   Mostly Cloudy
1:30 AM 50.0 °F - 44.6 °F 82% 29.68 in 6.2 mi WSW 17.3 mph - N/A   Scattered Clouds
2:00 AM 50.0 °F - 44.6 °F 82% 29.68 in 6.2 mi WSW 18.4 mph - N/A   Scattered Clouds
2:30 AM 50.0 °F - 44.6 °F 82% 29.68 in 6.2 mi WSW 18.4 mph - N/A   Mostly Cloudy
3:00 AM 50.0 °F - 42.8 °F 76% 29.68 in 6.2 mi West 15.0 mph - N/A   Mostly Cloudy
3:30 AM 50.0 °F - 44.6 °F 82% 29.68 in 6.2 mi WSW 13.8 mph - N/A   Mostly Cloudy
4:00 AM 50.0 °F - 42.8 °F 76% 29.68 in 6.2 mi SW 17.3 mph - N/A   Mostly Cloudy
4:30 AM 50.0 °F - 42.8 °F 76% 29.68 in 6.2 mi SW 18.4 mph - N/A   Mostly Cloudy
5:00 AM 48.2 °F - 41.0 °F 76% 29.71 in 6.2 mi WSW 19.6 mph - N/A   Mostly Cloudy
5:30 AM 48.2 °F - 41.0 °F 76% 29.71 in 6.2 mi WSW 19.6 mph - N/A   Partly Cloudy
6:00 AM 48.2 °F - 41.0 °F 76% 29.71 in 6.2 mi WSW 17.3 mph - N/A   Partly Cloudy
6:30 AM 48.2 °F - 39.2 °F 71% 29.74 in 6.2 mi WSW 15.0 mph - N/A   Partly Cloudy
7:00 AM 46.4 °F 40.1 °F 39.2 °F 76% 29.74 in 6.2 mi WSW 15.0 mph - N/A   Scattered Clouds
7:30 AM 46.4 °F 40.1 °F 39.2 °F 76% 29.74 in 6.2 mi WSW 15.0 mph - N/A   Scattered Clouds
8:00 AM 46.4 °F 39.8 °F 39.2 °F 76% 29.77 in 6.2 mi SW 16.1 mph - N/A   Partly Cloudy
8:30 AM 46.4 °F 39.5 °F 39.2 °F 76% 29.77 in 6.2 mi WSW 17.3 mph - N/A   Scattered Clouds
9:00 AM 46.4 °F 40.4 °F 41.0 °F 81% 29.80 in 6.2 mi WSW 13.8 mph - N/A   Scattered Clouds
9:30 AM 48.2 °F - 41.0 °F 76% 29.80 in 6.2 mi WSW 15.0 mph - N/A   Scattered Clouds
10:00 AM 48.2 °F - 41.0 °F 76% 29.80 in 6.2 mi WSW 16.1 mph - N/A   Mostly Cloudy
10:30 AM 50.0 °F - 41.0 °F 71% 29.80 in 6.2 mi WSW 15.0 mph - N/A   Scattered Clouds
11:00 AM 51.8 °F - 41.0 °F 67% 29.83 in 6.2 mi WSW 16.1 mph - N/A   Scattered Clouds
11:30 AM 51.8 °F - 41.0 °F 67% 29.83 in 6.2 mi WSW 17.3 mph - N/A   Scattered Clouds
12:00 PM 53.6 °F - 42.8 °F 67% 29.83 in 6.2 mi WSW 17.3 mph - N/A   Scattered Clouds
12:30 PM 53.6 °F - 41.0 °F 62% 29.83 in 6.2 mi WSW 19.6 mph - N/A   Scattered Clouds
1:00 PM 53.6 °F - 39.2 °F 58% 29.83 in 6.2 mi WSW 23.0 mph - N/A   Scattered Clouds
1:30 PM 53.6 °F - 39.2 °F 58% 29.83 in 6.2 mi WSW 20.7 mph - N/A   Mostly Cloudy
2:00 PM 53.6 °F - 39.2 °F 58% 29.83 in 6.2 mi SW 20.7 mph - N/A   Mostly Cloudy
2:30 PM 53.6 °F - 37.4 °F 54% 29.80 in 6.2 mi SW 20.7 mph - N/A   Mostly Cloudy
3:00 PM 53.6 °F - 37.4 °F 54% 29.80 in 6.2 mi WSW 19.6 mph - N/A   Scattered Clouds
3:30 PM 53.6 °F - 39.2 °F 58% 29.80 in 6.2 mi WSW 17.3 mph - N/A   Mostly Cloudy
4:00 PM 53.6 °F - 39.2 °F 58% 29.80 in 6.2 mi SW 18.4 mph - N/A   Mostly Cloudy
4:30 PM 51.8 °F - 37.4 °F 58% 29.80 in 6.2 mi SW 21.9 mph - N/A   Mostly Cloudy
5:00 PM 51.8 °F - 37.4 °F 58% 29.77 in 6.2 mi SW 16.1 mph - N/A   Mostly Cloudy
5:30 PM 51.8 °F - 39.2 °F 62% 29.77 in 6.2 mi SW 17.3 mph - N/A   Mostly Cloudy
6:00 PM 51.8 °F - 39.2 °F 62% 29.77 in - SSW 15.0 mph - N/A   Clear
6:30 PM 51.8 °F - 39.2 °F 62% 29.77 in - SSW 15.0 mph - N/A   Clear
7:00 PM 51.8 °F - 41.0 °F 67% 29.74 in 6.2 mi SSW 15.0 mph - N/A   Overcast
7:30 PM 51.8 °F - 41.0 °F 67% 29.74 in 6.2 mi SSW 16.1 mph - N/A   Overcast
8:00 PM 51.8 °F - 42.8 °F 71% 29.71 in 6.2 mi SSW 20.7 mph - N/A   Mostly Cloudy
8:30 PM 51.8 °F - 42.8 °F 71% 29.68 in 6.2 mi SSW 19.6 mph - N/A   Mostly Cloudy
9:00 PM 50.0 °F - 44.6 °F 82% 29.68 in 6.2 mi SSW 17.3 mph 28.8 mph N/A Rain Light Rain
9:30 PM 50.0 °F - 44.6 °F 82% 29.65 in 6.2 mi South 17.3 mph - N/A Rain Light Rain
10:00 PM 50.0 °F - 44.6 °F 82% 29.62 in 6.2 mi South 16.1 mph - N/A   Mostly Cloudy
10:30 PM 50.0 °F - 46.4 °F 87% 29.59 in 6.2 mi South 20.7 mph - N/A Rain Light Rain
11:00 PM 50.0 °F - 46.4 °F 87% 29.56 in 6.2 mi South 19.6 mph - N/A Rain Light Rain
11:30 PM 50.0 °F - 46.4 °F 87% 29.50 in 5.6 mi South 20.7 mph - N/A Rain Light Rain